CCM62PM LFKJ-LFML

Flight info

Callsign CCM62PM
Flight time 0h 39m
Altitude 24000
Route TINOT
Aircraft A20N/M-SDE2E3FGHIRWXY/LB1

Departure

Time 2026-04-24 15:15
Airport Ajaccio Napoléon Bonaparte airport (LFKJ)

Arrival

Time 2026-04-24 15:55
Airport Marseille Provence Airport (LFML)
Time Latitude Longitude Altitude Speed Heading
2026-04-24 14:49 41.91758 8.79433 37 ft 0 kts 345°
2026-04-24 15:06 41.91758 8.79434 36 ft 0 kts 345°
2026-04-24 15:07 41.91744 8.79440 37 ft 2 kts 341°
2026-04-24 15:07 41.91730 8.79446 37 ft 2 kts 343°
2026-04-24 15:07 41.91717 8.79455 37 ft 2 kts 304°
2026-04-24 15:07 41.91712 8.79472 37 ft 1 kts 312°
2026-04-24 15:08 41.91699 8.79481 37 ft 2 kts 357°
2026-04-24 15:08 41.91690 8.79480 37 ft 0 kts 23°
2026-04-24 15:08 41.91683 8.79475 38 ft 0 kts 25°
2026-04-24 15:11 41.91691 8.79481 37 ft 3 kts 25°
2026-04-24 15:11 41.91734 8.79506 37 ft 9 kts 25°
2026-04-24 15:11 41.91811 8.79555 37 ft 14 kts 25°
2026-04-24 15:11 41.91919 8.79620 37 ft 19 kts 25°
2026-04-24 15:12 41.92059 8.79709 37 ft 24 kts 25°
2026-04-24 15:12 41.92416 8.79931 37 ft 31 kts 25°
2026-04-24 15:12 41.92625 8.80062 38 ft 34 kts 25°
2026-04-24 15:13 41.92826 8.80236 40 ft 33 kts 43°
2026-04-24 15:13 41.92950 8.80410 41 ft 11 kts 59°
2026-04-24 15:13 41.92961 8.80460 41 ft 1 kts 91°
2026-04-24 15:13 41.92958 8.80482 41 ft 3 kts 103°
2026-04-24 15:14 41.92951 8.80516 41 ft 3 kts 111°
2026-04-24 15:14 41.92934 8.80548 41 ft 5 kts 139°
2026-04-24 15:14 41.92873 8.80550 41 ft 12 kts 203°
2026-04-24 15:14 41.92733 8.80463 40 ft 49 kts 205°
2026-04-24 15:15 41.92171 8.80105 37 ft 126 kts 205°
2026-04-24 15:15 41.91180 8.79491 144 ft 176 kts 206°
2026-04-24 15:15 41.90096 8.78831 960 ft 172 kts 206°
2026-04-24 15:15 41.89060 8.78016 1688 ft 179 kts 219°
2026-04-24 15:16 41.88048 8.76991 2178 ft 194 kts 218°
2026-04-24 15:16 41.86916 8.75861 2668 ft 211 kts 217°
2026-04-24 15:16 41.85636 8.74627 2907 ft 244 kts 216°
2026-04-24 15:16 41.84181 8.73271 2987 ft 261 kts 216°
2026-04-24 15:17 41.82673 8.71899 2991 ft 263 kts 215°
2026-04-24 15:17 41.81153 8.70528 2992 ft 263 kts 215°
2026-04-24 15:17 41.79636 8.69160 3008 ft 265 kts 215°
2026-04-24 15:17 41.78088 8.67768 3505 ft 273 kts 215°
2026-04-24 15:18 41.76543 8.66377 4505 ft 273 kts 214°
2026-04-24 15:18 41.74966 8.64959 5408 ft 277 kts 214°
2026-04-24 15:18 41.73374 8.63504 6250 ft 282 kts 218°
2026-04-24 15:18 41.72128 8.61497 7053 ft 288 kts 248°
2026-04-24 15:19 41.71766 8.58895 7887 ft 289 kts 276°
2026-04-24 15:19 41.72335 8.56365 8725 ft 288 kts 301°
2026-04-24 15:19 41.73342 8.54069 9588 ft 291 kts 303°
2026-04-24 15:19 41.74368 8.51746 10361 ft 296 kts 303°
2026-04-24 15:20 41.75418 8.49330 10925 ft 308 kts 302°
2026-04-24 15:20 41.76524 8.46748 11345 ft 327 kts 302°
2026-04-24 15:20 41.77669 8.44044 11696 ft 345 kts 301°
2026-04-24 15:20 41.78877 8.41174 12037 ft 362 kts 301°
2026-04-24 15:21 41.80117 8.38218 12600 ft 371 kts 301°
2026-04-24 15:21 41.81372 8.35216 13345 ft 375 kts 301°
2026-04-24 15:21 41.82644 8.32170 14058 ft 378 kts 300°
2026-04-24 15:21 41.83844 8.28993 14755 ft 382 kts 296°
2026-04-24 15:22 41.84898 8.25733 15415 ft 387 kts 294°
2026-04-24 15:22 41.85928 8.22373 16103 ft 390 kts 294°
2026-04-24 15:22 41.86951 8.19004 16750 ft 394 kts 294°
2026-04-24 15:23 41.89019 8.12181 17937 ft 402 kts 294°
2026-04-24 15:23 41.91090 8.05348 19027 ft 410 kts 294°
2026-04-24 15:23 41.92169 8.01782 19562 ft 415 kts 294°
2026-04-24 15:24 41.95442 7.90945 21105 ft 426 kts 294°
2026-04-24 15:25 41.97313 7.84737 21728 ft 438 kts 294°
2026-04-24 15:25 41.99999 7.75795 22761 ft 447 kts 294°
2026-04-24 15:26 42.03506 7.64058 24000 ft 458 kts 294°
2026-04-24 15:27 42.07046 7.52155 24119 ft 457 kts 294°
2026-04-24 15:27 42.10567 7.40269 24118 ft 457 kts 294°
2026-04-24 15:28 42.15240 7.24411 24114 ft 457 kts 293°
2026-04-24 15:29 42.17568 7.16470 24118 ft 456 kts 293°
2026-04-24 15:30 42.21041 7.04577 24118 ft 456 kts 293°
2026-04-24 15:31 42.25271 6.90028 24116 ft 456 kts 293°
2026-04-24 15:32 42.30239 6.72829 24117 ft 455 kts 293°
2026-04-24 15:33 42.34798 6.56938 24116 ft 455 kts 293°
2026-04-24 15:33 42.38191 6.45049 24115 ft 454 kts 293°
2026-04-24 15:34 42.40456 6.37084 24116 ft 454 kts 292°
2026-04-24 15:35 42.43839 6.25135 24117 ft 454 kts 292°
2026-04-24 15:35 42.46085 6.17171 24117 ft 454 kts 292°
2026-04-24 15:35 42.47205 6.13189 24119 ft 454 kts 292°
2026-04-24 15:36 42.48317 6.09232 24117 ft 454 kts 292°
2026-04-24 15:36 42.50542 6.01293 24117 ft 454 kts 292°
2026-04-24 15:36 42.51656 5.97307 24118 ft 453 kts 291°
2026-04-24 15:37 42.52780 5.93277 24119 ft 453 kts 292°
2026-04-24 15:37 42.53870 5.89362 23870 ft 442 kts 292°
2026-04-24 15:37 42.54586 5.86780 23256 ft 440 kts 292°
2026-04-24 15:37 42.56017 5.81631 21607 ft 445 kts 292°
2026-04-24 15:38 42.57098 5.77725 20298 ft 440 kts 292°
2026-04-24 15:38 42.58136 5.73965 19010 ft 431 kts 292°
2026-04-24 15:38 42.59172 5.70214 18122 ft 422 kts 293°
2026-04-24 15:38 42.60193 5.66516 17629 ft 413 kts 293°
2026-04-24 15:39 42.61188 5.62916 17112 ft 407 kts 293°
2026-04-24 15:39 42.62167 5.59364 16591 ft 402 kts 293°
2026-04-24 15:39 42.63143 5.55819 16057 ft 397 kts 292°
2026-04-24 15:39 42.64092 5.52362 15533 ft 394 kts 292°
2026-04-24 15:40 42.65036 5.48921 15003 ft 390 kts 292°
2026-04-24 15:40 42.65979 5.45466 14472 ft 386 kts 292°
2026-04-24 15:40 42.66903 5.42082 13949 ft 383 kts 292°
2026-04-24 15:40 42.67821 5.38720 13420 ft 380 kts 292°
2026-04-24 15:41 42.68734 5.35386 12894 ft 377 kts 293°
2026-04-24 15:41 42.69981 5.32318 12348 ft 372 kts 309°
2026-04-24 15:41 42.71824 5.29887 11796 ft 368 kts 325°
2026-04-24 15:41 42.73992 5.28066 11330 ft 362 kts 330°
2026-04-24 15:42 42.76122 5.26396 11061 ft 351 kts 331°
2026-04-24 15:42 42.78193 5.24775 10878 ft 338 kts 331°
2026-04-24 15:42 42.80215 5.23182 10670 ft 327 kts 330°
2026-04-24 15:42 42.82140 5.21654 10485 ft 316 kts 330°
2026-04-24 15:43 42.84000 5.20171 10325 ft 305 kts 330°
2026-04-24 15:43 42.85782 5.18745 10183 ft 294 kts 330°
2026-04-24 15:43 42.87509 5.17362 10059 ft 283 kts 330°
2026-04-24 15:43 42.89198 5.16009 9743 ft 282 kts 330°
2026-04-24 15:44 42.90886 5.14656 9391 ft 281 kts 330°
2026-04-24 15:44 42.92573 5.13314 9042 ft 280 kts 333°
2026-04-24 15:44 42.94402 5.12569 8669 ft 277 kts
2026-04-24 15:44 42.96247 5.13125 8305 ft 274 kts 27°
2026-04-24 15:45 42.97912 5.14375 7977 ft 272 kts 30°
2026-04-24 15:45 42.99564 5.15630 7630 ft 270 kts 30°
2026-04-24 15:45 43.01210 5.16865 7331 ft 269 kts 30°
2026-04-24 15:45 43.02833 5.18075 7011 ft 267 kts 29°
2026-04-24 15:46 43.04373 5.19219 6706 ft 266 kts 29°
2026-04-24 15:46 43.05995 5.20422 6393 ft 264 kts 29°
2026-04-24 15:46 43.07607 5.21617 6073 ft 263 kts 29°
2026-04-24 15:46 43.09194 5.22793 5759 ft 261 kts 29°
2026-04-24 15:47 43.10781 5.23969 5444 ft 260 kts 29°
2026-04-24 15:47 43.12376 5.25153 5138 ft 258 kts 29°
2026-04-24 15:47 43.13938 5.26312 4828 ft 256 kts 28°
2026-04-24 15:47 43.15499 5.27470 4516 ft 255 kts 28°
2026-04-24 15:48 43.17059 5.28628 4229 ft 253 kts 28°
2026-04-24 15:48 43.18575 5.29753 4006 ft 247 kts 28°
2026-04-24 15:48 43.20064 5.30858 3982 ft 232 kts 28°
2026-04-24 15:48 43.21421 5.31869 3969 ft 218 kts 28°
2026-04-24 15:49 43.22745 5.32755 3967 ft 205 kts 16°
2026-04-24 15:49 43.24143 5.33036 3835 ft 206 kts
2026-04-24 15:49 43.25579 5.33009 3573 ft 204 kts 359°
2026-04-24 15:49 43.26974 5.32946 3363 ft 196 kts 358°
2026-04-24 15:50 43.28315 5.32896 3086 ft 192 kts 358°
2026-04-24 15:50 43.29609 5.32852 2935 ft 181 kts 358°
2026-04-24 15:50 43.30817 5.32818 2804 ft 168 kts 358°
2026-04-24 15:50 43.31958 5.32789 2666 ft 155 kts 358°
2026-04-24 15:51 43.33033 5.32762 2572 ft 155 kts 357°
2026-04-24 15:51 43.34106 5.32734 2446 ft 156 kts 357°
2026-04-24 15:51 43.35193 5.32709 2156 ft 155 kts 354°
2026-04-24 15:51 43.36133 5.32222 1995 ft 138 kts 319°
2026-04-24 15:52 43.36606 5.31641 2002 ft 138 kts 313°
2026-04-24 15:52 43.37484 5.30355 1993 ft 138 kts 310°
2026-04-24 15:52 43.38145 5.29378 1887 ft 139 kts 311°
2026-04-24 15:52 43.38805 5.28426 1649 ft 138 kts 311°
2026-04-24 15:53 43.39473 5.27477 1411 ft 138 kts 311°
2026-04-24 15:53 43.40132 5.26541 1176 ft 137 kts 311°
2026-04-24 15:53 43.40789 5.25607 942 ft 136 kts 310°
2026-04-24 15:53 43.41447 5.24672 703 ft 135 kts 310°
2026-04-24 15:54 43.42096 5.23748 473 ft 134 kts 310°
2026-04-24 15:54 43.42740 5.22834 243 ft 134 kts 310°
2026-04-24 15:54 43.43392 5.21917 54 ft 131 kts 309°
2026-04-24 15:54 43.43847 5.21246 35 ft 53 kts 313°
2026-04-24 15:55 43.44030 5.20989 29 ft 20 kts 321°
2026-04-24 15:55 43.44103 5.20976 28 ft 10 kts 23°
2026-04-24 15:55 43.44149 5.21042 29 ft 9 kts 59°
2026-04-24 15:55 43.44166 5.21123 29 ft 8 kts 102°
2026-04-24 15:56 43.44134 5.21184 30 ft 7 kts 131°
2026-04-24 15:56 43.44104 5.21227 31 ft 5 kts 135°
2026-04-24 15:56 43.44079 5.21260 32 ft 4 kts 135°
2026-04-24 15:56 43.44051 5.21299 33 ft 7 kts 135°
2026-04-24 15:57 43.44003 5.21366 34 ft 12 kts 134°
2026-04-24 15:57 43.43938 5.21465 37 ft 15 kts 121°
2026-04-24 15:57 43.43935 5.21555 38 ft 14 kts 67°
2026-04-24 15:57 43.43967 5.21709 39 ft 12 kts 118°
2026-04-24 15:58 43.43914 5.21788 42 ft 10 kts 134°
2026-04-24 15:58 43.43869 5.21854 43 ft 9 kts 133°
2026-04-24 15:58 43.43827 5.21915 45 ft 8 kts 133°
2026-04-24 15:58 43.43787 5.21988 47 ft 11 kts 104°
2026-04-24 15:59 43.43830 5.22093 48 ft 14 kts 44°
2026-04-24 15:59 43.43843 5.22200 49 ft 12 kts 141°
2026-04-24 15:59 43.43808 5.22251 50 ft 5 kts 102°
2026-04-24 15:59 43.43813 5.22298 51 ft 4 kts 74°
2026-04-24 16:00 43.43817 5.22317 51 ft 0 kts 74°